| time (UTC) | temp F | wind direction | speed MPH | gust MPH | rain 1hr in | rain 24hr in | rain mn in | humidity % | barometer mb |
| 20260506144832 | 55 | 131 | 0.0 | 0.0 | 0.00 | 0.00 | 0.00 | 91 | 1020.8 |
| 20260506144332 | 55 | 112 | 0.0 | 0.0 | 0.00 | 0.00 | 0.00 | 92 | 1020.6 |
| 20260506143821 | 55 | 334 | 0.0 | 0.0 | 0.00 | 0.00 | 0.00 | 91 | 1020.8 |
| 20260506143327 | 55 | 329 | 0.0 | 0.0 | 0.00 | 0.00 | 0.00 | 91 | 1020.7 |
| 20260506142829 | 55 | 35 | 0.0 | 0.0 | 0.00 | 0.00 | 0.00 | 91 | 1020.5 |
| 20260506142337 | 55 | 61 | 0.0 | 0.0 | 0.00 | 0.00 | 0.00 | 91 | 1020.3 |
| 20260506141819 | 54 | 107 | 0.0 | 5.0 | 0.00 | 0.00 | 0.00 | 92 | 1020.2 |
| 20260506141318 | 54 | 90 | 1.0 | 5.0 | 0.00 | 0.00 | 0.00 | 91 | 1019.9 |
| 20260506140828 | 54 | 86 | 0.0 | 4.0 | 0.00 | 0.00 | 0.00 | 92 | 1019.9 |
| 20260506140327 | 54 | 154 | 0.0 | 4.0 | 0.00 | 0.00 | 0.00 | 92 | 1020.0 |
| 20260506135830 | 54 | 136 | 0.0 | 0.0 | 0.00 | 0.00 | 0.00 | 92 | 1019.9 |
| 20260506135316 | 54 | 131 | 0.0 | 0.0 | 0.00 | 0.00 | 0.00 | 92 | 1020.0 |
| 20260506134819 | 54 | 129 | 0.0 | 0.0 | 0.00 | 0.00 | 0.00 | 92 | 1019.9 |
| 20260506134318 | 54 | 129 | 0.0 | 0.0 | 0.00 | 0.00 | 0.00 | 92 | 1019.8 |
| 20260506133828 | 54 | 129 | 0.0 | 0.0 | 0.00 | 0.00 | 0.00 | 92 | 1019.8 |
| 20260506133326 | 54 | 129 | 0.0 | 0.0 | 0.00 | 0.00 | 0.00 | 92 | 1019.8 |
| 20260506132836 | 54 | 136 | 0.0 | 1.0 | 0.00 | 0.00 | 0.00 | 92 | 1019.8 |
| 20260506132315 | 54 | 120 | 0.0 | 1.0 | 0.00 | 0.00 | 0.00 | 92 | 1019.8 |
| 20260506131817 | 54 | 115 | 0.0 | 0.0 | 0.00 | 0.00 | 0.00 | 92 | 1019.7 |
| 20260506131324 | 54 | 139 | 0.0 | 1.0 | 0.00 | 0.00 | 0.00 | 92 | 1019.6 |
| 20260506130824 | 54 | 93 | 0.0 | 1.0 | 0.00 | 0.00 | 0.00 | 91 | 1019.5 |
| 20260506130324 | 54 | 142 | 0.0 | 0.0 | 0.00 | 0.00 | 0.00 | 91 | 1019.4 |
| 20260506125833 | 54 | 126 | 0.0 | 0.0 | 0.00 | 0.00 | 0.00 | 91 | 1019.6 |
| 20260506125313 | 54 | 125 | 0.0 | 0.0 | 0.00 | 0.00 | 0.00 | 91 | 1019.5 |
| 20260506124815 | 54 | 153 | 0.0 | 1.0 | 0.00 | 0.00 | 0.00 | 91 | 1019.5 |
| 20260506124322 | 54 | 102 | 0.0 | 1.0 | 0.00 | 0.00 | 0.00 | 91 | 1019.4 |
| 20260506123825 | 55 | 94 | 0.0 | 0.0 | 0.00 | 0.00 | 0.00 | 91 | 1019.3 |
| 20260506123333 | 55 | 127 | 0.0 | 0.0 | 0.00 | 0.00 | 0.00 | 91 | 1019.3 |
| 20260506122813 | 55 | 139 | 0.0 | 0.0 | 0.00 | 0.00 | 0.00 | 91 | 1019.4 |
| 20260506122319 | 55 | 131 | 0.0 | 1.0 | 0.00 | 0.00 | 0.00 | 91 | 1019.4 |
| 20260506121822 | 55 | 120 | 0.0 | 1.0 | 0.00 | 0.00 | 0.00 | 91 | 1019.5 |
| 20260506120818 | 55 | 110 | 0.0 | 0.0 | 0.00 | 0.00 | 0.00 | 91 | 1019.4 |
| 20260506120318 | 55 | 134 | 0.0 | 0.0 | 0.00 | 0.00 | 0.00 | 90 | 1019.3 |
| 20260506115828 | 55 | 138 | 0.0 | 0.0 | 0.00 | 0.00 | 0.00 | 90 | 1019.4 |
| 20260506115327 | 55 | 138 | 0.0 | 0.0 | 0.00 | 0.00 | 0.00 | 90 | 1019.3 |
| 20260506114837 | 55 | 136 | 0.0 | 0.0 | 0.00 | 0.00 | 0.00 | 90 | 1019.3 |
| 20260506114314 | 55 | 136 | 0.0 | 0.0 | 0.00 | 0.00 | 0.00 | 90 | 1019.1 |
| 20260506113817 | 55 | 136 | 0.0 | 0.0 | 0.00 | 0.00 | 0.00 | 90 | 1019.1 |
| 20260506113316 | 55 | 136 | 0.0 | 0.0 | 0.00 | 0.00 | 0.00 | 90 | 1019.0 |
| 20260506112826 | 55 | 136 | 0.0 | 0.0 | 0.00 | 0.00 | 0.00 | 90 | 1019.0 |
| 20260506112325 | 55 | 115 | 0.0 | 0.0 | 0.00 | 0.00 | 0.00 | 90 | 1019.0 |
| 20260506111835 | 55 | 113 | 0.0 | 0.0 | 0.00 | 0.00 | 0.00 | 90 | 1019.1 |
| 20260506111318 | 55 | 113 | 0.0 | 0.0 | 0.00 | 0.00 | 0.00 | 90 | 1019.0 |
| 20260506110819 | 55 | 113 | 0.0 | 0.0 | 0.00 | 0.00 | 0.00 | 90 | 1018.9 |
| 20260506110334 | 55 | 142 | 0.0 | 0.0 | 0.00 | 0.00 | 0.00 | 90 | 1018.8 |
| 20260506105859 | 55 | 111 | 0.0 | 0.0 | 0.00 | 0.00 | 0.00 | 90 | 1018.7 |
| 20260506105338 | 55 | 127 | 0.0 | 0.0 | 0.00 | 0.00 | 0.00 | 90 | 1018.7 |
| 20260506104847 | 55 | 127 | 0.0 | 0.0 | 0.00 | 0.00 | 0.00 | 90 | 1018.6 |
| 20260506104353 | 55 | 134 | 0.0 | 0.0 | 0.00 | 0.00 | 0.00 | 90 | 1018.5 |
| 20260506103835 | 55 | 134 | 0.0 | 0.0 | 0.00 | 0.00 | 0.00 | 90 | 1018.4 |
| 20260506103342 | 55 | 139 | 0.0 | 0.0 | 0.00 | 0.00 | 0.00 | 90 | 1018.4 |
| 20260506102850 | 55 | 139 | 0.0 | 0.0 | 0.00 | 0.00 | 0.00 | 90 | 1018.4 |
| 20260506102350 | 55 | 127 | 0.0 | 0.0 | 0.00 | 0.00 | 0.00 | 90 | 1018.3 |
| 20260506101837 | 55 | 122 | 0.0 | 0.0 | 0.00 | 0.00 | 0.00 | 90 | 1018.3 |
| 20260506101317 | 55 | 115 | 0.0 | 0.0 | 0.00 | 0.00 | 0.00 | 90 | 1018.2 |
| 20260506100819 | 55 | 112 | 0.0 | 0.0 | 0.00 | 0.00 | 0.00 | 90 | 1018.2 |
| 20260506100326 | 55 | 91 | 0.0 | 3.0 | 0.00 | 0.00 | 0.00 | 90 | 1018.2 |
| 20260506095815 | 56 | 149 | 0.0 | 3.0 | 0.00 | 0.00 | 0.00 | 89 | 1018.2 |
| 20260506095314 | 56 | 122 | 0.0 | 0.0 | 0.00 | 0.00 | 0.00 | 89 | 1018.2 |
| 20260506094824 | 56 | 118 | 0.0 | 0.0 | 0.00 | 0.00 | 0.00 | 89 | 1018.1 |
| 20260506094324 | 56 | 115 | 0.0 | 0.0 | 0.00 | 0.00 | 0.00 | 89 | 1018.0 |
| 20260506093826 | 56 | 132 | 0.0 | 0.0 | 0.00 | 0.00 | 0.00 | 89 | 1018.0 |
| 20260506093313 | 56 | 132 | 0.0 | 0.0 | 0.00 | 0.00 | 0.00 | 89 | 1018.0 |
| 20260506092814 | 56 | 119 | 0.0 | 1.0 | 0.00 | 0.00 | 0.00 | 89 | 1018.0 |
| 20260506092320 | 56 | 111 | 0.0 | 0.0 | 0.00 | 0.00 | 0.00 | 89 | 1018.0 |
| 20260506091829 | 56 | 124 | 0.0 | 0.0 | 0.00 | 0.00 | 0.00 | 89 | 1018.0 |
| 20260506091329 | 56 | 113 | 0.0 | 0.0 | 0.00 | 0.00 | 0.00 | 89 | 1017.9 |
| 20260506090838 | 57 | 138 | 0.0 | 0.0 | 0.00 | 0.00 | 0.00 | 89 | 1017.9 |
| 20260506090318 | 57 | 130 | 0.0 | 0.0 | 0.00 | 0.00 | 0.00 | 89 | 1017.9 |
| 20260506085820 | 57 | 87 | 0.0 | 0.0 | 0.00 | 0.00 | 0.00 | 89 | 1017.8 |
| 20260506085319 | 57 | 110 | 0.0 | 0.0 | 0.00 | 0.00 | 0.00 | 88 | 1017.9 |
| 20260506084829 | 57 | 130 | 0.0 | 0.0 | 0.00 | 0.00 | 0.00 | 88 | 1017.8 |
| 20260506084328 | 57 | 135 | 0.0 | 1.0 | 0.00 | 0.00 | 0.00 | 88 | 1017.9 |
| 20260506083837 | 57 | 134 | 0.0 | 1.0 | 0.00 | 0.00 | 0.00 | 88 | 1017.9 |
| 20260506083317 | 58 | 108 | 0.0 | 1.0 | 0.00 | 0.00 | 0.00 | 88 | 1017.9 |
| 20260506082819 | 58 | 91 | 0.0 | 1.0 | 0.00 | 0.00 | 0.00 | 88 | 1017.9 |
| 20260506082325 | 58 | 113 | 0.0 | 0.0 | 0.00 | 0.00 | 0.00 | 88 | 1017.9 |
| 20260506081828 | 58 | 123 | 0.0 | 0.0 | 0.00 | 0.00 | 0.00 | 87 | 1017.9 |
| 20260506081327 | 58 | 110 | 0.0 | 0.0 | 0.00 | 0.00 | 0.00 | 87 | 1017.9 |
| 20260506080817 | 58 | 110 | 0.0 | 0.0 | 0.00 | 0.00 | 0.00 | 87 | 1017.9 |
| 20260506080316 | 58 | 129 | 0.0 | 0.0 | 0.00 | 0.00 | 0.00 | 87 | 1017.8 |
| 20260506073331 | 59 | 70 | 0.0 | 0.0 | 0.00 | 0.00 | 0.00 | 85 | 1017.5 |
| 20260506072841 | 59 | 71 | 0.0 | 0.0 | 0.00 | 0.00 | 0.00 | 85 | 1017.4 |
| 20260506072422 | 59 | 71 | 0.0 | 0.0 | 0.00 | 0.00 | 0.00 | 84 | 1017.4 |
| 20260506071845 | 59 | 70 | 0.0 | 0.0 | 0.00 | 0.00 | 0.00 | 84 | 1017.5 |
| 20260506071350 | 59 | 70 | 0.0 | 0.0 | 0.00 | 0.00 | 0.00 | 83 | 1017.4 |
| 20260506070834 | 60 | 71 | 0.0 | 0.0 | 0.00 | 0.00 | 0.00 | 82 | 1017.4 |
| 20260506070339 | 60 | 71 | 0.0 | 0.0 | 0.00 | 0.00 | 0.00 | 82 | 1017.4 |
| 20260506062324 | 59 | 345 | 0.0 | 0.0 | 0.00 | 0.00 | 0.00 | 83 | 1017.2 |
| 20260506061813 | 59 | 346 | 0.0 | 0.0 | 0.00 | 0.00 | 0.00 | 83 | 1017.2 |
| 20260506061312 | 59 | 346 | 0.0 | 0.0 | 0.00 | 0.00 | 0.00 | 83 | 1017.1 |
| 20260506060815 | 59 | 346 | 0.0 | 0.0 | 0.00 | 0.00 | 0.00 | 83 | 1017.1 |
| 20260506060322 | 60 | 346 | 0.0 | 0.0 | 0.00 | 0.00 | 0.00 | 83 | 1017.2 |
| 20260506051338 | 60 | 345 | 0.0 | 0.0 | 0.00 | 0.00 | 0.00 | 82 | 1016.9 |
| 20260506050820 | 60 | 345 | 0.0 | 0.0 | 0.00 | 0.00 | 0.00 | 82 | 1016.9 |
| 20260506050320 | 60 | 345 | 0.0 | 0.0 | 0.00 | 0.00 | 0.00 | 82 | 1016.9 |
| 20260506044828 | 60 | 346 | 0.0 | 0.0 | 0.00 | 0.00 | 0.00 | 82 | 1016.8 |
| 20260506044335 | 60 | 346 | 0.0 | 0.0 | 0.00 | 0.00 | 0.00 | 82 | 1016.7 |
| 20260506043818 | 60 | 346 | 0.0 | 0.0 | 0.00 | 0.00 | 0.00 | 81 | 1016.7 |
| 20260506043318 | 60 | 345 | 0.0 | 0.0 | 0.00 | 0.00 | 0.00 | 82 | 1016.6 |
| 20260506042828 | 60 | 346 | 0.0 | 0.0 | 0.00 | 0.00 | 0.00 | 81 | 1016.5 |
| 20260506042328 | 60 | 346 | 0.0 | 0.0 | 0.00 | 0.00 | 0.00 | 81 | 1016.5 |
| 20260506041830 | 60 | 345 | 0.0 | 0.0 | 0.00 | 0.00 | 0.00 | 81 | 1016.4 |
| 20260506041337 | 60 | 345 | 0.0 | 0.0 | 0.00 | 0.00 | 0.00 | 81 | 1016.4 |
| 20260506040820 | 60 | 345 | 0.0 | 0.0 | 0.00 | 0.00 | 0.00 | 81 | 1016.4 |
| 20260506040320 | 60 | 345 | 0.0 | 0.0 | 0.00 | 0.00 | 0.00 | 80 | 1016.3 |
| 20260506035830 | 60 | 345 | 0.0 | 0.0 | 0.00 | 0.00 | 0.00 | 80 | 1016.3 |
| 20260506035350 | 60 | 345 | 0.0 | 0.0 | 0.00 | 0.00 | 0.00 | 80 | 1016.2 |
| 20260506034839 | 60 | 345 | 0.0 | 0.0 | 0.00 | 0.00 | 0.00 | 80 | 1016.1 |
| 20260506034345 | 60 | 345 | 0.0 | 0.0 | 0.00 | 0.00 | 0.00 | 80 | 1016.0 |
| 20260506033846 | 60 | 345 | 0.0 | 0.0 | 0.00 | 0.00 | 0.00 | 79 | 1015.9 |
| 20260506033332 | 61 | 345 | 0.0 | 0.0 | 0.00 | 0.00 | 0.00 | 79 | 1015.9 |
| 20260506032842 | 61 | 345 | 0.0 | 0.0 | 0.00 | 0.00 | 0.00 | 78 | 1015.9 |
| 20260506032340 | 61 | 304 | 0.0 | 0.0 | 0.00 | 0.00 | 0.00 | 78 | 1015.9 |
| 20260506031851 | 61 | 347 | 0.0 | 0.0 | 0.00 | 0.00 | 0.00 | 78 | 1015.9 |
| 20260506031356 | 61 | 347 | 0.0 | 0.0 | 0.00 | 0.00 | 0.00 | 78 | 1015.9 |
| 20260506030819 | 61 | 347 | 0.0 | 0.0 | 0.00 | 0.00 | 0.00 | 78 | 1015.8 |
| 20260506030318 | 61 | 347 | 0.0 | 0.0 | 0.00 | 0.00 | 0.00 | 78 | 1015.7 |
| 20260506025829 | 61 | 347 | 0.0 | 0.0 | 0.00 | 0.00 | 0.00 | 78 | 1015.6 |
| 20260506025328 | 61 | 347 | 0.0 | 0.0 | 0.00 | 0.00 | 0.00 | 77 | 1015.6 |
| 20260506024838 | 62 | 347 | 0.0 | 0.0 | 0.00 | 0.00 | 0.00 | 78 | 1015.6 |
| 20260506024325 | 62 | 347 | 0.0 | 0.0 | 0.00 | 0.00 | 0.00 | 78 | 1015.6 |
| 20260506023828 | 61 | 347 | 0.0 | 0.0 | 0.00 | 0.00 | 0.00 | 77 | 1015.5 |
| 20260506023328 | 61 | 347 | 0.0 | 0.0 | 0.00 | 0.00 | 0.00 | 77 | 1015.5 |
| 20260506022838 | 61 | 347 | 0.0 | 0.0 | 0.00 | 0.00 | 0.00 | 76 | 1015.5 |
| 20260506022319 | 62 | 327 | 0.0 | 0.0 | 0.00 | 0.00 | 0.00 | 77 | 1015.5 |
| 20260506021821 | 62 | 3 | 0.0 | 2.0 | 0.00 | 0.00 | 0.00 | 76 | 1015.6 |
| 20260506021328 | 62 | 3 | 0.0 | 2.0 | 0.00 | 0.00 | 0.00 | 76 | 1015.6 |
| 20260506020831 | 62 | 125 | 0.0 | 0.0 | 0.00 | 0.00 | 0.00 | 77 | 1015.5 |
| 20260506020311 | 62 | 139 | 0.0 | 1.0 | 0.00 | 0.00 | 0.00 | 76 | 1015.4 |
| 20260506015814 | 62 | 348 | 0.0 | 1.0 | 0.00 | 0.00 | 0.00 | 76 | 1015.5 |
| 20260506015321 | 62 | 304 | 0.0 | 3.0 | 0.00 | 0.00 | 0.00 | 76 | 1015.5 |
| 20260506014824 | 62 | 348 | 1.0 | 3.0 | 0.00 | 0.00 | 0.00 | 75 | 1015.5 |
| 20260506014331 | 63 | 340 | 0.0 | 1.0 | 0.00 | 0.00 | 0.00 | 75 | 1015.5 |
| 20260506013814 | 63 | 301 | 0.0 | 0.0 | 0.00 | 0.00 | 0.00 | 76 | 1015.5 |
| 20260506013314 | 62 | 350 | 0.0 | 0.0 | 0.00 | 0.00 | 0.00 | 76 | 1015.6 |
| 20260506012825 | 62 | 338 | 0.0 | 0.0 | 0.00 | 0.00 | 0.00 | 77 | 1015.6 |
| 20260506012324 | 62 | 340 | 0.0 | 0.0 | 0.00 | 0.00 | 0.00 | 76 | 1015.6 |
| 20260506011827 | 62 | 100 | 0.0 | 2.0 | 0.00 | 0.00 | 0.00 | 77 | 1015.6 |
| 20260506011334 | 62 | 100 | 0.0 | 4.0 | 0.00 | 0.00 | 0.00 | 77 | 1015.6 |
| 20260506010817 | 62 | 302 | 0.0 | 1.0 | 0.00 | 0.00 | 0.00 | 76 | 1015.6 |
| 20260506010317 | 63 | 335 | 0.0 | 3.0 | 0.00 | 0.00 | 0.00 | 75 | 1015.5 |
| 20260506005827 | 62 | 200 | 0.0 | 5.0 | 0.00 | 0.00 | 0.00 | 76 | 1015.5 |
| 20260506005326 | 63 | 77 | 0.0 | 2.0 | 0.00 | 0.00 | 0.00 | 76 | 1015.5 |
| 20260506004829 | 62 | 54 | 0.0 | 0.0 | 0.00 | 0.00 | 0.00 | 78 | 1015.6 |
| 20260506004336 | 62 | 130 | 0.0 | 0.0 | 0.00 | 0.00 | 0.00 | 77 | 1015.7 |
| 20260506003819 | 62 | 100 | 0.0 | 0.0 | 0.00 | 0.00 | 0.00 | 77 | 1015.7 |
| 20260506003319 | 62 | 354 | 0.0 | 0.0 | 0.00 | 0.00 | 0.00 | 78 | 1015.6 |
| 20260506002829 | 61 | 354 | 0.0 | 0.0 | 0.00 | 0.00 | 0.00 | 79 | 1015.6 |
| 20260506002329 | 61 | 355 | 0.0 | 0.0 | 0.00 | 0.00 | 0.00 | 78 | 1015.7 |
| 20260506001812 | 61 | 349 | 0.0 | 0.0 | 0.00 | 0.00 | 0.00 | 79 | 1015.8 |
| 20260506001312 | 61 | 340 | 0.0 | 0.0 | 0.00 | 0.00 | 0.00 | 79 | 1015.8 |
| 20260506000822 | 61 | 359 | 0.0 | 1.0 | 0.00 | 0.00 | 0.00 | 80 | 1015.8 |
| 20260506000323 | 61 | 332 | 0.0 | 1.0 | 0.00 | 0.00 | 0.00 | 79 | 1015.8 |
| 20260505235831 | 61 | 287 | 0.0 | 0.0 | 0.00 | 0.00 | 0.00 | 79 | 1015.8 |
| 20260505235315 | 61 | 342 | 0.0 | 1.0 | 0.00 | 0.00 | 0.00 | 80 | 1015.9 |
| 20260505234818 | 60 | 342 | 0.0 | 1.0 | 0.00 | 0.00 | 0.00 | 80 | 1016.0 |
| 20260505234325 | 60 | 55 | 0.0 | 0.0 | 0.00 | 0.00 | 0.00 | 80 | 1016.1 |
| 20260505233912 | 60 | 327 | 0.0 | 0.0 | 0.00 | 0.00 | 0.00 | 81 | 1016.1 |
| 20260505233326 | 60 | 340 | 0.0 | 1.0 | 0.00 | 0.00 | 0.00 | 80 | 1016.2 |
| 20260505232829 | 60 | 335 | 0.0 | 1.0 | 0.00 | 0.00 | 0.00 | 80 | 1016.0 |
| 20260505232336 | 60 | 326 | 0.0 | 3.0 | 0.00 | 0.00 | 0.00 | 81 | 1016.1 |
| 20260505231907 | 60 | 15 | 0.0 | 4.0 | 0.00 | 0.00 | 0.00 | 81 | 1016.1 |
| 20260505231321 | 60 | 341 | 2.0 | 4.0 | 0.00 | 0.00 | 0.00 | 80 | 1016.1 |
| 20260505230825 | 60 | 326 | 1.0 | 4.0 | 0.00 | 0.00 | 0.00 | 81 | 1016.2 |
| 20260505230312 | 60 | 339 | 0.0 | 1.0 | 0.00 | 0.00 | 0.00 | 79 | 1016.1 |
| 20260505225822 | 61 | 333 | 0.0 | 1.0 | 0.00 | 0.00 | 0.00 | 79 | 1016.1 |
| 20260505225321 | 61 | 342 | 0.0 | 0.0 | 0.00 | 0.00 | 0.00 | 79 | 1016.2 |
| 20260505224832 | 61 | 307 | 0.0 | 0.0 | 0.00 | 0.00 | 0.00 | 78 | 1016.2 |
| 20260505224312 | 60 | 307 | 0.0 | 0.0 | 0.00 | 0.00 | 0.00 | 78 | 1016.3 |
| 20260505223814 | 61 | 333 | 0.0 | 0.0 | 0.00 | 0.00 | 0.00 | 78 | 1016.3 |
| 20260505223315 | 61 | 296 | 0.0 | 0.0 | 0.00 | 0.00 | 0.00 | 77 | 1016.4 |
| 20260505222824 | 61 | 334 | 0.0 | 0.0 | 0.00 | 0.00 | 0.00 | 77 | 1016.3 |
| 20260505222324 | 61 | 318 | 0.0 | 0.0 | 0.00 | 0.00 | 0.00 | 77 | 1016.3 |
| 20260505221834 | 61 | 318 | 0.0 | 0.0 | 0.00 | 0.00 | 0.00 | 77 | 1016.4 |
| 20260505221318 | 61 | 318 | 0.0 | 0.0 | 0.00 | 0.00 | 0.00 | 77 | 1016.4 |
| 20260505220821 | 60 | 318 | 0.0 | 0.0 | 0.00 | 0.00 | 0.00 | 78 | 1016.4 |
| 20260505220328 | 61 | 318 | 0.0 | 0.0 | 0.00 | 0.00 | 0.00 | 77 | 1016.5 |
| 20260505215831 | 61 | 176 | 0.0 | 0.0 | 0.00 | 0.00 | 0.00 | 77 | 1016.5 |
| 20260505215331 | 61 | 166 | 0.0 | 0.0 | 0.00 | 0.00 | 0.00 | 77 | 1016.5 |
| 20260505214814 | 61 | 352 | 0.0 | 0.0 | 0.00 | 0.00 | 0.00 | 77 | 1016.5 |
| 20260505214320 | 61 | 352 | 0.0 | 0.0 | 0.00 | 0.00 | 0.00 | 78 | 1016.5 |
| 20260505213823 | 60 | 234 | 0.0 | 0.0 | 0.00 | 0.00 | 0.00 | 78 | 1016.5 |
| 20260505213330 | 60 | 308 | 0.0 | 0.0 | 0.00 | 0.00 | 0.00 | 79 | 1016.5 |
| 20260505212814 | 60 | 338 | 0.0 | 0.0 | 0.00 | 0.00 | 0.00 | 78 | 1016.5 |
| 20260505211823 | 61 | 339 | 0.0 | 0.0 | 0.00 | 0.00 | 0.00 | 77 | 1016.5 |
| 20260505211337 | 61 | 174 | 0.0 | 0.0 | 0.00 | 0.00 | 0.00 | 78 | 1016.6 |
| 20260505210820 | 60 | 174 | 0.0 | 0.0 | 0.00 | 0.00 | 0.00 | 78 | 1016.6 |
| 20260505210320 | 60 | 344 | 0.0 | 3.0 | 0.00 | 0.01 | 0.00 | 77 | 1016.6 |
| 20260505205830 | 60 | 146 | 0.0 | 3.0 | 0.00 | 0.01 | 0.00 | 77 | 1016.6 |
| 20260505204820 | 60 | 19 | 0.0 | 1.0 | 0.00 | 0.01 | 0.00 | 78 | 1016.6 |
| 20260505204328 | 60 | 330 | 0.0 | 0.0 | 0.00 | 0.01 | 0.00 | 78 | 1016.6 |
| 20260505203850 | 59 | 4 | 0.0 | 1.0 | 0.00 | 0.01 | 0.00 | 79 | 1016.8 |
| 20260505203336 | 59 | 337 | 0.0 | 1.0 | 0.00 | 0.01 | 0.00 | 79 | 1016.8 |
| 20260505202838 | 60 | 357 | 0.0 | 1.0 | 0.00 | 0.01 | 0.00 | 78 | 1016.8 |
| 20260505202344 | 60 | 260 | 0.0 | 0.0 | 0.00 | 0.01 | 0.00 | 79 | 1016.8 |
| 20260505201853 | 59 | 316 | 0.0 | 0.0 | 0.00 | 0.01 | 0.00 | 80 | 1016.8 |
| 20260505201355 | 59 | 316 | 0.0 | 0.0 | 0.00 | 0.01 | 0.00 | 80 | 1016.9 |
| 20260505200837 | 59 | 136 | 0.0 | 0.0 | 0.00 | 0.01 | 0.00 | 80 | 1016.9 |
| 20260505200343 | 59 | 302 | 0.0 | 1.0 | 0.00 | 0.01 | 0.00 | 80 | 1016.9 |
| 20260505195852 | 59 | 300 | 0.0 | 2.0 | 0.00 | 0.01 | 0.00 | 80 | 1016.9 |
| 20260505195329 | 59 | 295 | 0.0 | 2.0 | 0.00 | 0.01 | 0.00 | 79 | 1016.9 |
| 20260505194818 | 59 | 323 | 0.0 | 2.0 | 0.00 | 0.01 | 0.00 | 79 | 1016.9 |
| 20260505194325 | 60 | 306 | 0.0 | 0.0 | 0.00 | 0.01 | 0.00 | 79 | 1016.9 |
| 20260505193827 | 59 | 319 | 0.0 | 0.0 | 0.00 | 0.01 | 0.00 | 79 | 1016.9 |
| 20260505193313 | 59 | 322 | 0.0 | 0.0 | 0.00 | 0.01 | 0.00 | 79 | 1016.9 |
| 20260505192824 | 60 | 315 | 0.0 | 0.0 | 0.00 | 0.01 | 0.00 | 78 | 1016.9 |
| 20260505192322 | 60 | 155 | 0.0 | 1.0 | 0.00 | 0.01 | 0.00 | 78 | 1016.9 |
| 20260505191831 | 60 | 158 | 0.0 | 1.0 | 0.00 | 0.01 | 0.00 | 78 | 1016.9 |
| 20260505191337 | 60 | 312 | 0.0 | 0.0 | 0.00 | 0.01 | 0.00 | 77 | 1016.9 |
| 20260505190820 | 60 | 196 | 0.0 | 0.0 | 0.00 | 0.01 | 0.00 | 78 | 1016.9 |
| 20260505190319 | 60 | 271 | 0.0 | 2.0 | 0.00 | 0.02 | 0.00 | 78 | 1016.9 |
| 20260505185825 | 59 | 312 | 0.0 | 2.0 | 0.00 | 0.02 | 0.00 | 79 | 1016.8 |
| 20260505185325 | 59 | 56 | 0.0 | 3.0 | 0.00 | 0.02 | 0.00 | 79 | 1016.9 |
| 20260505184837 | 59 | 99 | 0.0 | 4.0 | 0.00 | 0.02 | 0.00 | 80 | 1016.9 |
| 20260505184315 | 59 | 181 | 1.0 | 4.0 | 0.00 | 0.02 | 0.00 | 80 | 1016.9 |
| 20260505183818 | 58 | 310 | 0.0 | 1.0 | 0.00 | 0.02 | 0.00 | 81 | 1016.9 |
| 20260505183318 | 58 | 338 | 0.0 | 1.0 | 0.00 | 0.02 | 0.00 | 82 | 1017.0 |
| 20260505182825 | 58 | 345 | 0.0 | 1.0 | 0.00 | 0.02 | 0.00 | 82 | 1017.0 |
| 20260505182325 | 58 | 153 | 0.0 | 2.0 | 0.00 | 0.02 | 0.00 | 82 | 1016.9 |
| 20260505181835 | 58 | 298 | 0.0 | 4.0 | 0.00 | 0.02 | 0.00 | 81 | 1016.9 |
| 20260505181315 | 58 | 250 | 0.0 | 0.0 | 0.00 | 0.02 | 0.00 | 83 | 1016.9 |
| 20260505180818 | 57 | 253 | 0.0 | 0.0 | 0.00 | 0.02 | 0.00 | 83 | 1016.8 |
| 20260505180318 | 57 | 252 | 0.0 | 0.0 | 0.00 | 0.02 | 0.00 | 83 | 1016.8 |
| 20260505175828 | 56 | 331 | 0.0 | 0.0 | 0.00 | 0.02 | 0.00 | 85 | 1016.9 |
| 20260505175328 | 56 | 308 | 0.0 | 0.0 | 0.00 | 0.02 | 0.00 | 85 | 1016.9 |
| 20260505174838 | 56 | 75 | 0.0 | 0.0 | 0.00 | 0.02 | 0.00 | 85 | 1016.9 |
| 20260505174317 | 56 | 101 | 0.0 | 0.0 | 0.00 | 0.02 | 0.00 | 87 | 1016.9 |
| 20260505173820 | 55 | 101 | 0.0 | 0.0 | 0.00 | 0.02 | 0.00 | 87 | 1016.9 |
| 20260505173320 | 55 | 89 | 0.0 | 0.0 | 0.00 | 0.02 | 0.00 | 87 | 1016.9 |
| 20260505172830 | 55 | 141 | 0.0 | 0.0 | 0.00 | 0.02 | 0.00 | 87 | 1016.8 |
| 20260505172330 | 55 | 241 | 0.0 | 0.0 | 0.00 | 0.02 | 0.00 | 88 | 1016.9 |
| 20260505171813 | 55 | 131 | 0.0 | 0.0 | 0.00 | 0.02 | 0.00 | 88 | 1016.8 |
| 20260505171320 | 55 | 131 | 0.0 | 0.0 | 0.00 | 0.02 | 0.00 | 88 | 1016.7 |
| 20260505170823 | 55 | 176 | 0.0 | 0.0 | 0.00 | 0.02 | 0.00 | 88 | 1016.7 |
| 20260505170331 | 55 | 193 | 0.0 | 0.0 | 0.00 | 0.02 | 0.00 | 88 | 1016.6 |
| 20260505165812 | 55 | 248 | 0.0 | 0.0 | 0.00 | 0.02 | 0.00 | 88 | 1016.6 |
| 20260505165313 | 55 | 156 | 0.0 | 0.0 | 0.00 | 0.02 | 0.00 | 89 | 1016.5 |
| 20260505164816 | 54 | 167 | 0.0 | 0.0 | 0.00 | 0.02 | 0.00 | 88 | 1016.5 |
| 20260505164322 | 54 | 163 | 0.0 | 0.0 | 0.00 | 0.02 | 0.00 | 88 | 1016.5 |
| 20260505163825 | 54 | 167 | 0.0 | 2.0 | 0.00 | 0.02 | 0.00 | 88 | 1016.6 |
| 20260505163332 | 54 | 178 | 0.0 | 2.0 | 0.00 | 0.02 | 0.00 | 88 | 1016.5 |
| 20260505162815 | 55 | 198 | 0.0 | 0.0 | 0.00 | 0.02 | 0.00 | 88 | 1016.6 |
| 20260505162315 | 55 | 315 | 0.0 | 0.0 | 0.00 | 0.02 | 0.00 | 87 | 1016.5 |
| 20260505161818 | 55 | 141 | 0.0 | 0.0 | 0.00 | 0.02 | 0.00 | 88 | 1016.4 |
| 20260505161325 | 54 | 141 | 0.0 | 0.0 | 0.00 | 0.02 | 0.00 | 88 | 1016.4 |
| 20260505160828 | 55 | 305 | 0.0 | 0.0 | 0.00 | 0.02 | 0.00 | 87 | 1016.3 |
| 20260505160334 | 55 | 158 | 0.0 | 0.0 | 0.00 | 0.02 | 0.00 | 88 | 1016.3 |
| 20260505153317 | 54 | 133 | 0.0 | 2.0 | 0.00 | 0.02 | 0.00 | 90 | 1016.3 |
| 20260505152827 | 53 | 204 | 0.0 | 1.0 | 0.00 | 0.02 | 0.00 | 90 | 1016.3 |
| 20260505152312 | 53 | 168 | 0.0 | 0.0 | 0.00 | 0.02 | 0.00 | 91 | 1016.3 |
| 20260505151815 | 53 | 214 | 0.0 | 0.0 | 0.00 | 0.02 | 0.00 | 91 | 1016.3 |
| 20260505151322 | 53 | 190 | 0.0 | 0.0 | 0.00 | 0.02 | 0.00 | 91 | 1016.3 |
| 20260505150812 | 53 | 220 | 0.0 | 0.0 | 0.00 | 0.02 | 0.00 | 91 | 1016.3 |
| 20260505150330 | 53 | 160 | 0.0 | 1.0 | 0.00 | 0.02 | 0.00 | 92 | 1016.2 |